CW4887 Weather Reports


time (UTC)temp
C
wind
direction
speed
KPH
gust
KPH
rain 1hr
cm
rain 24hr
cm
rain mn
cm
humidity
%
barometer
mb
20260503193052 26 126 4.8 16.1 0.00 0.00 0.00 28 1010.8
20260503191543 26 140 3.2 12.9 0.00 0.00 0.00 31 1011.0
20260503190047 25 164 3.2 14.5 0.00 0.00 0.00 30 1011.1
20260503184547 25 135 6.4 12.9 0.00 0.00 0.00 32 1011.2
20260503183052 25 146 6.4 17.7 0.00 0.00 0.00 33 1011.3
20260503181535 25 158 3.2 12.9 0.00 0.00 0.00 35 1011.5
20260503180033 25 173 1.6 16.1 0.00 0.00 0.00 35 1011.6
20260503174529 24 119 0.0 6.4 0.00 0.00 0.00 41 1011.7
20260503173025 23 111 0.0 0.0 0.00 0.00 0.00 42 1011.9
20260503171521 22 88 0.0 0.0 0.00 0.00 0.00 46 1012.0
20260503081511 10 5 0.0 0.0 0.00 0.00 0.00 71 1012.5
20260503071557 12 5 0.0 3.2 0.00 0.00 0.00 69 1012.4
20260503054540 12 5 0.0 0.0 0.00 0.00 0.00 70 1012.3
20260503053029 13 5 0.0 0.0 0.00 0.00 0.00 68 1012.3
20260503051524 13 5 0.0 0.0 0.00 0.00 0.00 66 1012.2
20260503050030 14 5 0.0 0.0 0.00 0.00 0.00 64 1012.0
20260503044516 14 5 0.0 0.0 0.00 0.00 0.00 64 1011.9
20260503043016 15 5 0.0 0.0 0.00 0.00 0.00 62 1011.7
20260503041509 16 5 0.0 9.7 0.00 0.00 0.00 58 1011.3
20260503040002 16 5 0.0 0.0 0.00 0.00 0.00 58 1011.0
20260503034558 17 14 0.0 0.0 0.00 0.00 0.00 55 1010.8
20260503033123 19 14 0.0 0.0 0.00 0.00 0.00 48 1010.7
20260503031556 21 99 0.0 0.0 0.00 0.00 0.00 36 1010.5
20260503030045 22 99 0.0 12.9 0.00 0.00 0.00 34 1010.2
20260503024551 23 103 0.0 11.3 0.00 0.00 0.00 32 1010.1
20260503023036 23 82 0.0 16.1 0.00 0.00 0.00 31 1010.1
20260503021532 24 84 8.0 16.1 0.00 0.00 0.00 30 1009.9
20260503020028 24 69 1.6 22.5 0.00 0.00 0.00 31 1009.9
20260503014537 24 76 1.6 20.9 0.00 0.00 0.00 30 1009.8
20260503013025 25 76 4.8 16.1 0.00 0.00 0.00 31 1009.9
20260503011514 25 83 9.7 19.3 0.00 0.00 0.00 29 1009.9
20260503010010 25 46 4.8 20.9 0.00 0.00 0.00 29 1009.8
20260503004505 25 49 8.0 19.3 0.00 0.00 0.00 29 1009.8
20260503003001 25 53 8.0 22.5 0.00 0.00 0.00 28 1009.8
20260503001602 25 63 8.0 17.7 0.00 0.00 0.00 29 1009.8
20260503000106 25 46 8.0 20.9 0.00 0.00 0.00 29 1009.8
20260502234602 25 47 9.7 25.7 0.00 0.00 0.00 29 1009.8
20260502233059 25 57 1.6 20.9 0.00 0.00 0.00 29 1010.0
20260502231556 25 76 9.7 29.0 0.00 0.00 0.00 29 1010.3
20260502230035 25 77 8.0 20.9 0.00 0.00 0.00 29 1010.4
20260502224532 25 107 0.0 16.1 0.00 0.00 0.00 30 1010.6
20260502223027 24 77 8.0 22.5 0.00 0.00 0.00 31 1010.6
20260502221521 24 77 6.4 16.1 0.00 0.00 0.00 33 1010.8
20260502220022 23 115 1.6 14.5 0.00 0.00 0.00 34 1010.9
20260502214512 23 141 4.8 33.8 0.00 0.00 0.00 34 1010.9
20260502213008 23 82 6.4 12.9 0.00 0.00 0.00 40 1011.1
20260502211515 23 146 11.3 22.5 0.00 0.00 0.00 42 1011.3
20260502210109 21 148 0.0 1.6 0.00 0.00 0.00 45 1011.2
20260502204555 20 12 1.6 17.7 0.00 0.00 0.00 49 1011.1
20260502203057 20 67 9.7 16.1 0.00 0.00 0.00 50 1012.1
20260502201549 21 104 0.0 0.0 0.00 0.00 0.00 42 1012.2
20260502200043 21 95 6.4 17.7 0.00 0.00 0.00 44 1012.3
20260502194542 22 101 11.3 17.7 0.00 0.00 0.00 45 1012.2